Weather History for West Palm Beach, FL

Change the Weather History Date:

Monday, December 16, 2013

  Actual Average Record
Temperature  
Mean Temperature 67 °F 68 °F  
Max Temperature 74 °F 76 °F 86 °F (1927)
Min Temperature 60 °F 60 °F 33 °F (1968)
Degree Days  
Heating Degree Days 0 2  
Month to date heating degree days 0 22  
Since 1 July heating degree days 4 34  
Cooling Degree Days 2 5  
Month to date cooling degree days 149 89  
Year to date cooling degree days 4350 3955  
Growing Degree Days 17 (Base 50)    
Moisture  
Dew Point 58 °F    
Average Humidity 74    
Maximum Humidity 90    
Minimum Humidity 57    
Precipitation  
Precipitation 0.00 in 0.11 in 1.70 in (1892)
Month to date precipitation 4.18 1.70  
Year to date precipitation 64.82 60.65  
Snow  
Snow 0.00 in - - ()
Month to date snowfall 0.0  
Since 1 July snowfall 0.0  
Snow Depth 0.00 in    
Sea Level Pressure  
Sea Level Pressure 30.10 in    
Wind  
Wind Speed 10 mph (NNW)    
Max Wind Speed 15 mph    
Max Gust Speed 18 mph    
Visibility 10 miles    
Events      
T = Trace of Precipitation, MM = Missing Value Source: NWS Daily Summary

Daily Weather History Graph

Daily Weather History Graph

Search for Another Location

Airport:

Trip Planner

Search our weather history database for the weather conditions in past years. The results will help you decide how hot, cold, wet, or windy it might be!

Date:

Astronomy

Dec. 16, 2013 Rise Set
Actual Time 7:02 AM EST 5:30 PM EST
Civil Twilight 6:36 AM EST 5:55 PM EST
Nautical Twilight 6:07 AM EST 6:24 PM EST
Astronomical Twilight 5:39 AM EST 6:53 PM EST
Moon 5:14 PM EST (12/16) 6:14 AM EST (12/16)
Length of Visible Light 11h 19m
Length of Day
10h 28m
Full, 100% of the Moon is Illuminated
Dec 16
Full
Dec 17
Full
Dec 25
Last Quarter
Jan 1
New
Jan 7
First Quarter

Hourly Weather History & Observations

Time (EST) Temp. Dew Point Humidity Pressure Visibility Wind Dir Wind Speed Gust Speed Precip Events Conditions
12:53 AM 71.1 °F 64.0 °F 78% 30.06 in 10.0 mi North 9.2 mph - N/A   Mostly Cloudy
1:53 AM 70.0 °F 64.0 °F 81% 30.06 in 10.0 mi NNW 10.4 mph - N/A   Mostly Cloudy
2:53 AM 69.1 °F 60.1 °F 73% 30.05 in 10.0 mi NNW 11.5 mph - N/A   Mostly Cloudy
3:53 AM 66.9 °F 57.9 °F 73% 30.05 in 10.0 mi NNW 13.8 mph - N/A   Mostly Cloudy
4:41 AM 66.2 °F 57.2 °F 73% 30.05 in 10.0 mi NNW 13.8 mph - N/A   Mostly Cloudy
4:53 AM 66.0 °F 57.0 °F 73% 30.06 in 10.0 mi NNW 10.4 mph - N/A   Mostly Cloudy
5:53 AM 66.0 °F 55.0 °F 68% 30.08 in 10.0 mi NNW 11.5 mph - N/A   Mostly Cloudy
6:53 AM 64.0 °F 57.0 °F 78% 30.10 in 10.0 mi NW 11.5 mph - N/A   Overcast
7:53 AM 64.0 °F 57.0 °F 78% 30.12 in 10.0 mi NNW 8.1 mph - N/A   Mostly Cloudy
8:53 AM 64.0 °F 57.9 °F 80% 30.13 in 10.0 mi NNW 10.4 mph - N/A   Mostly Cloudy
9:53 AM 66.0 °F 59.0 °F 78% 30.15 in 10.0 mi NNW 6.9 mph - N/A   Mostly Cloudy
10:53 AM 70.0 °F 60.1 °F 71% 30.14 in 10.0 mi North 6.9 mph - N/A   Mostly Cloudy
11:53 AM 73.0 °F 60.1 °F 64% 30.12 in 10.0 mi North 6.9 mph - N/A   Mostly Cloudy
12:53 PM 73.9 °F 57.9 °F 57% 30.09 in 10.0 mi North 9.2 mph - N/A   Mostly Cloudy
1:53 PM 73.9 °F 59.0 °F 59% 30.08 in 10.0 mi NNE 10.4 mph - N/A   Mostly Cloudy
2:53 PM 72.0 °F 57.9 °F 61% 30.09 in 10.0 mi North 9.2 mph - N/A   Mostly Cloudy
3:53 PM 73.0 °F 57.9 °F 59% 30.09 in 10.0 mi North 10.4 mph - N/A   Scattered Clouds
4:53 PM 70.0 °F 57.0 °F 63% 30.10 in 10.0 mi North 11.5 mph - N/A   Scattered Clouds
5:53 PM 66.9 °F 57.0 °F 70% 30.12 in 10.0 mi North 9.2 mph - N/A   Scattered Clouds
6:53 PM 66.0 °F 57.0 °F 73% 30.14 in 10.0 mi NNW 9.2 mph - N/A   Scattered Clouds
7:53 PM 64.9 °F 57.0 °F 75% 30.15 in 10.0 mi NNW 9.2 mph - N/A   Partly Cloudy
8:53 PM 63.0 °F 57.0 °F 81% 30.15 in 10.0 mi NW 8.1 mph - N/A   Partly Cloudy
9:53 PM 62.1 °F 57.0 °F 84% 30.16 in 10.0 mi NW 9.2 mph - N/A   Partly Cloudy
10:53 PM 61.0 °F 57.0 °F 87% 30.16 in 10.0 mi NW 9.2 mph - N/A   Scattered Clouds
11:53 PM 60.1 °F 55.9 °F 86% 30.15 in 10.0 mi NNW 9.2 mph - N/A   Scattered Clouds